| time (UTC) | temp F | wind direction | speed knots | gust knots | rain 1hr in | rain 24hr in | rain mn in | humidity % | barometer mb |
| 20260510203058 | 78 | 210 | 5.2 | 0.0 | 0.00 | 0.00 | 0.00 | 100 | 1011.4 |
| 20260510201600 | 78 | 162 | 6.1 | 0.0 | 0.00 | 0.00 | 0.00 | 100 | 1011.4 |
| 20260510200051 | 79 | 155 | 6.1 | 0.0 | 0.00 | 0.00 | 0.00 | 100 | 1011.4 |
| 20260510194527 | 79 | 146 | 5.2 | 0.0 | 0.00 | 0.00 | 0.00 | 100 | 1011.4 |
| 20260510193030 | 79 | 165 | 5.2 | 0.0 | 0.00 | 0.00 | 0.00 | 100 | 1011.5 |
| 20260510191502 | 79 | 164 | 6.1 | 0.0 | 0.00 | 0.00 | 0.00 | 100 | 1011.7 |
| 20260510190108 | 79 | 134 | 5.2 | 0.0 | 0.00 | 0.00 | 0.00 | 100 | 1011.9 |
| 20260510184539 | 79 | 163 | 5.2 | 0.0 | 0.00 | 0.00 | 0.00 | 100 | 1011.9 |
| 20260510183031 | 79 | 122 | 5.2 | 0.0 | 0.00 | 0.00 | 0.00 | 100 | 1012.0 |
| 20260510181509 | 78 | 175 | 6.1 | 0.0 | 0.00 | 0.00 | 0.00 | 100 | 1012.4 |
| 20260510180005 | 78 | 168 | 6.1 | 0.0 | 0.00 | 0.00 | 0.00 | 100 | 1012.4 |
| 20260510174554 | 78 | 140 | 5.2 | 0.0 | 0.00 | 0.00 | 0.00 | 100 | 1012.5 |
| 20260510173040 | 78 | 165 | 5.2 | 0.0 | 0.00 | 0.00 | 0.00 | 100 | 1012.5 |
| 20260510171525 | 78 | 181 | 5.2 | 0.0 | 0.00 | 0.00 | 0.00 | 100 | 1012.6 |
| 20260510170013 | 79 | 150 | 3.5 | 0.0 | 0.00 | 0.00 | 0.00 | 100 | 1012.5 |
| 20260510164603 | 79 | 131 | 4.3 | 0.0 | 0.00 | 0.00 | 0.00 | 100 | 1012.4 |
| 20260510163104 | 78 | 159 | 4.3 | 0.0 | 0.00 | 0.00 | 0.00 | 100 | 1012.4 |
| 20260510161549 | 78 | 150 | 3.5 | 0.0 | 0.00 | 0.00 | 0.00 | 100 | 1012.4 |
| 20260510160047 | 78 | 19 | 0.9 | 0.0 | 0.00 | 0.00 | 0.00 | 100 | 1012.5 |
| 20260510154542 | 77 | 18 | 2.6 | 0.0 | 0.00 | 0.00 | 0.00 | 100 | 1012.5 |
| 20260510153041 | 76 | 18 | 3.5 | 0.0 | 0.00 | 0.00 | 0.00 | 100 | 1012.5 |
| 20260510151535 | 75 | 16 | 3.5 | 0.0 | 0.00 | 0.00 | 0.00 | 100 | 1012.5 |
| 20260510150027 | 75 | 16 | 3.5 | 0.0 | 0.00 | 0.00 | 0.00 | 100 | 1012.4 |
| 20260510144513 | 75 | 15 | 3.5 | 0.0 | 0.00 | 0.00 | 0.00 | 100 | 1012.4 |
| 20260510143012 | 74 | 355 | 2.6 | 0.0 | 0.00 | 0.00 | 0.00 | 100 | 1012.5 |
| 20260510141506 | 73 | 17 | 2.6 | 0.0 | 0.00 | 0.00 | 0.00 | 100 | 1012.5 |
| 20260510140059 | 72 | 27 | 4.3 | 0.0 | 0.00 | 0.00 | 0.00 | 100 | 1012.4 |
| 20260510134557 | 72 | 19 | 2.6 | 0.0 | 0.00 | 0.00 | 0.00 | 100 | 1012.4 |
| 20260510133052 | 72 | 15 | 4.3 | 0.0 | 0.00 | 0.00 | 0.00 | 100 | 1012.3 |
| 20260510131547 | 72 | 19 | 0.0 | 0.0 | 0.00 | 0.00 | 0.00 | 100 | 1012.2 |
| 20260510130042 | 72 | 41 | 0.9 | 0.0 | 0.00 | 0.00 | 0.00 | 100 | 1012.0 |
| 20260510124526 | 71 | 32 | 3.5 | 0.0 | 0.00 | 0.00 | 0.00 | 100 | 1011.7 |
| 20260510123022 | 0 | 0.0 | 0.0 | 0.00 | 0.00 | 0.00 | 1011.4 | ||
| 20260510121517 | 0 | 0.0 | 0.0 | 0.00 | 0.00 | 0.00 | 1011.2 | ||
| 20260510120012 | 0 | 0.0 | 0.0 | 0.00 | 0.00 | 0.00 | 1011.1 | ||
| 20260510114510 | 0 | 0.0 | 0.0 | 0.00 | 0.00 | 0.00 | 1010.9 | ||
| 20260510113005 | 0 | 0.0 | 0.0 | 0.00 | 0.00 | 0.00 | 1010.6 | ||
| 20260510111601 | 70 | 36 | 2.6 | 0.0 | 0.00 | 0.00 | 0.00 | 100 | 1010.4 |
| 20260510104539 | 70 | 315 | 0.0 | 0.0 | 0.00 | 0.00 | 0.00 | 100 | 1010.0 |
| 20260510103039 | 70 | 5 | 0.0 | 0.0 | 0.00 | 0.00 | 0.00 | 100 | 1009.9 |
| 20260510101530 | 70 | 5 | 0.0 | 0.0 | 0.00 | 0.00 | 0.00 | 100 | 1009.9 |
| 20260510100029 | 70 | 5 | 0.0 | 0.0 | 0.00 | 0.00 | 0.00 | 100 | 1009.8 |
| 20260510094533 | 70 | 5 | 0.0 | 0.0 | 0.00 | 0.00 | 0.00 | 100 | 1009.7 |
| 20260510093017 | 71 | 5 | 0.0 | 0.0 | 0.00 | 0.00 | 0.00 | 100 | 1009.7 |
| 20260510091512 | 71 | 5 | 1.7 | 0.0 | 0.00 | 0.00 | 0.00 | 100 | 1009.3 |
| 20260510090008 | 71 | 19 | 3.5 | 0.0 | 0.00 | 0.00 | 0.00 | 100 | 1009.1 |
| 20260510084603 | 71 | 50 | 1.7 | 0.0 | 0.00 | 0.00 | 0.00 | 100 | 1008.8 |
| 20260510083042 | 71 | 91 | 0.9 | 0.0 | 0.00 | 0.00 | 0.00 | 100 | 1008.4 |
| 20260510081537 | 70 | 102 | 0.0 | 0.0 | 0.00 | 0.00 | 0.00 | 100 | 1008.3 |
| 20260510080039 | 70 | 81 | 0.0 | 0.0 | 0.00 | 0.00 | 0.00 | 100 | 1008.1 |
| 20260510074520 | 71 | 69 | 0.9 | 0.0 | 0.00 | 0.00 | 0.00 | 100 | 1008.3 |
| 20260510073033 | 71 | 65 | 1.7 | 0.0 | 0.00 | 0.00 | 0.00 | 100 | 1008.3 |
| 20260510071519 | 71 | 66 | 4.3 | 0.0 | 0.00 | 0.00 | 0.00 | 100 | 1008.4 |
| 20260510070016 | 72 | 57 | 2.6 | 0.0 | 0.00 | 0.00 | 0.00 | 100 | 1008.5 |
| 20260510064515 | 71 | 52 | 3.5 | 0.0 | 0.00 | 0.00 | 0.00 | 100 | 1008.5 |
| 20260510063018 | 71 | 22 | 2.6 | 0.0 | 0.00 | 0.00 | 0.00 | 100 | 1008.5 |
| 20260510061515 | 72 | 350 | 2.6 | 0.0 | 0.00 | 0.00 | 0.00 | 100 | 1008.6 |
| 20260510060009 | 72 | 338 | 2.6 | 0.0 | 0.00 | 0.00 | 0.00 | 100 | 1008.9 |
| 20260510054506 | 72 | 318 | 2.6 | 0.0 | 0.00 | 0.00 | 0.00 | 100 | 1009.3 |
| 20260510053002 | 73 | 324 | 2.6 | 0.0 | 0.00 | 0.00 | 0.00 | 100 | 1009.3 |
| 20260510051608 | 72 | 327 | 0.0 | 0.0 | 0.00 | 0.00 | 0.00 | 100 | 1008.9 |
| 20260510050105 | 72 | 327 | 0.0 | 0.0 | 0.00 | 0.00 | 0.00 | 100 | 1008.3 |
| 20260510044549 | 72 | 327 | 0.0 | 0.0 | 0.00 | 0.00 | 0.00 | 100 | 1009.0 |
| 20260510043047 | 72 | 327 | 0.0 | 0.0 | 0.00 | 0.00 | 0.00 | 100 | 1009.3 |
| 20260510041540 | 72 | 327 | 1.7 | 0.0 | 0.00 | 0.00 | 0.00 | 100 | 1009.4 |
| 20260510040024 | 72 | 163 | 0.0 | 0.0 | 0.00 | 0.00 | 0.00 | 100 | 1009.6 |
| 20260510034520 | 72 | 163 | 0.0 | 0.0 | 0.00 | 0.00 | 0.00 | 100 | 1009.9 |
| 20260510033015 | 72 | 163 | 0.0 | 0.0 | 0.00 | 0.00 | 0.00 | 100 | 1009.5 |
| 20260510031517 | 72 | 163 | 0.0 | 0.0 | 0.00 | 0.00 | 0.00 | 100 | 1009.4 |
| 20260510030007 | 72 | 163 | 0.0 | 0.0 | 0.00 | 0.00 | 0.00 | 100 | 1009.3 |
| 20260510024504 | 72 | 163 | 0.9 | 0.0 | 0.00 | 0.00 | 0.00 | 100 | 1008.8 |
| 20260510023059 | 72 | 163 | 2.6 | 0.0 | 0.00 | 0.00 | 0.00 | 100 | 1008.5 |
| 20260510021645 | 72 | 169 | 1.7 | 0.0 | 0.00 | 0.00 | 0.00 | 100 | 1008.7 |
| 20260510020039 | 73 | 173 | 2.6 | 0.0 | 0.00 | 0.00 | 0.00 | 100 | 1008.8 |
| 20260510014547 | 73 | 178 | 0.9 | 0.0 | 0.00 | 0.00 | 0.00 | 100 | 1009.2 |
| 20260510013033 | 73 | 177 | 0.9 | 0.0 | 0.00 | 0.00 | 0.00 | 100 | 1009.3 |
| 20260510011526 | 73 | 177 | 0.9 | 0.0 | 0.00 | 0.00 | 0.00 | 100 | 1009.7 |
| 20260510010033 | 73 | 180 | 3.5 | 0.0 | 0.00 | 0.00 | 0.00 | 100 | 1009.0 |
| 20260510004520 | 72 | 178 | 4.3 | 0.0 | 0.00 | 0.00 | 0.00 | 100 | 1008.4 |
| 20260510003013 | 72 | 145 | 4.3 | 0.0 | 0.00 | 0.00 | 0.00 | 100 | 1008.1 |
| 20260510001510 | 72 | 159 | 3.5 | 0.0 | 0.00 | 0.00 | 0.00 | 100 | 1008.3 |
| 20260510000053 | 72 | 161 | 1.7 | 0.0 | 0.00 | 0.00 | 0.00 | 100 | 1008.3 |
| 20260509234548 | 72 | 160 | 1.7 | 0.0 | 0.00 | 0.00 | 0.00 | 100 | 1008.3 |
| 20260509233044 | 73 | 160 | 0.0 | 0.0 | 0.00 | 0.00 | 0.00 | 100 | 1008.5 |
| 20260509231541 | 73 | 159 | 0.0 | 0.0 | 0.00 | 0.00 | 0.00 | 100 | 1008.4 |
| 20260509230040 | 73 | 159 | 0.9 | 0.0 | 0.00 | 0.00 | 0.00 | 100 | 1008.3 |
| 20260509224531 | 73 | 159 | 0.9 | 0.0 | 0.00 | 0.00 | 0.00 | 100 | 1008.3 |
| 20260509223027 | 73 | 160 | 0.9 | 0.0 | 0.00 | 0.00 | 0.00 | 100 | 1008.0 |
| 20260509221522 | 73 | 160 | 2.6 | 0.0 | 0.00 | 0.00 | 0.00 | 100 | 1008.2 |
| 20260509214556 | 74 | 137 | 0.9 | 0.0 | 0.00 | 0.00 | 0.00 | 100 | 1008.1 |
| 20260509213045 | 74 | 130 | 0.0 | 0.0 | 0.00 | 0.00 | 0.00 | 100 | 1008.3 |
| 20260509211538 | 74 | 167 | 1.7 | 0.0 | 0.00 | 0.00 | 0.00 | 100 | 1007.7 |
| 20260509210039 | 74 | 120 | 0.9 | 0.0 | 0.00 | 0.00 | 0.00 | 100 | 1007.9 |
| 20260509204528 | 74 | 145 | 5.2 | 0.0 | 0.00 | 0.00 | 0.00 | 100 | 1007.2 |